Wind_Speed
29 30 30 30 29 30 32 31 31 28 28 25 28 30 30 30 30 30 30 31 32 33 35 36 38 39 40 42 43 44 45 46 47 48 49 50 51 52 53 54 54 56 57 58
30 31 32 32 31 31 31 31 32 31 28 25 29 31 32 32 31 31 32 33 34 36 37 38 40 41 42 43 44 45 46 47 48 49 50 51 52 53 54 55 56 57 58 59
32 32 34 34 30 31 31 31 32 32 28 28 31 32 33 33 33 33 34 35 36 38 39 40 41 42 43 44 45 46 47 48 49 51 52 53 54 55 55 56 57 58 59 60
32 33 37 31 29 30 31 30 31 31 30 31 32 33 34 34 35 36 36 37 38 39 40 41 42 43 44 45 46 47 48 50 51 52 53 54 54 55 56 57 59 60 61 62
34 35 34 32 30 30 32 31 30 31 32 33 33 34 34 34 35 36 37 38 39 40 41 42 43 44 45 46 47 49 50 51 52 53 54 54 55 56 58 59 60 61 62 64
36 36 35 30 30 31 33 31 28 31 32 32 33 33 33 35 36 37 38 39 40 41 41 42 43 45 46 47 49 50 51 51 53 54 55 56 57 58 59 61 62 63 64 66
36 36 35 31 30 31 32 29 29 31 31 32 33 34 35 36 37 38 39 40 41 41 42 43 45 46 47 48 49 50 51 52 54 55 56 57 58 59 61 62 64 65 67 68
35 37 33 30 32 32 32 32 33 33 33 33 34 35 35 36 38 39 40 40 41 42 43 44 45 46 47 49 50 51 52 53 54 55 57 58 60 61 63 65 66 68 69 70
35 34 32 32 33 33 33 34 34 34 35 35 35 36 37 37 38 39 40 41 42 43 44 45 46 47 48 49 50 51 53 54 55 57 58 60 62 63 65 67 69 71 72 73
34 33 33 33 33 34 35 35 36 36 36 36 37 37 38 38 39 40 41 42 42 43 44 45 46 48 49 50 52 53 54 55 57 59 60 62 64 66 68 70 72 74 75 76
34 33 33 34 35 35 36 36 36 37 37 38 38 39 39 40 41 41 42 42 43 44 45 46 47 49 50 52 53 54 56 58 59 61 63 64 66 68 71 73 76 77 77 77
34 33 34 34 35 36 36 36 37 37 38 38 39 40 41 41 42 42 42 43 44 45 46 47 49 50 52 53 55 57 58 60 61 63 65 67 69 71 73 75 77 78 78 79
33 33 34 34 34 35 36 36 37 37 38 39 40 41 42 42 43 43 44 45 46 47 48 49 50 52 54 56 57 59 60 62 64 66 68 70 73 75 76 76 76 77 78 78
33 33 34 34 34 35 36 37 38 39 39 40 41 42 42 43 44 44 45 46 47 48 49 50 52 54 56 57 59 61 63 65 67 69 71 74 76 78 79 79 77 76 76 76
34 34 35 35 35 36 37 37 38 39 39 40 40 41 42 43 44 45 46 47 48 49 50 52 53 55 57 59 61 64 66 68 71 73 75 77 79 80 80 80 79 77 75 73
35 35 35 35 36 36 37 37 38 39 39 40 41 42 42 44 45 46 46 47 48 50 51 53 56 58 60 62 65 67 69 72 74 76 77 79 80 81 80 79 78 77 74 71
35 34 35 35 36 36 36 37 38 39 40 40 41 42 43 44 44 45 47 49 50 52 54 56 59 61 63 66 68 70 72 74 76 78 80 81 81 81 80 78 76 74 70 66
34 35 35 35 36 36 37 37 38 39 40 41 42 42 43 44 45 47 49 50 52 54 57 60 62 64 67 69 71 73 76 77 79 80 81 82 81 79 78 76 73 70 65 61
34 35 35 36 36 36 37 38 38 39 40 40 41 42 44 46 48 49 51 53 55 57 60 62 65 67 69 72 75 77 78 80 81 81 82 80 78 76 75 72 69 65 61 57
35 35 36 36 36 37 38 38 39 40 41 42 43 45 47 49 50 52 54 56 58 61 63 65 68 70 73 76 78 79 80 81 81 81 79 76 74 72 69 66 63 59 56 52
34 35 36 37 37 38 38 39 40 41 43 44 46 47 49 51 52 54 56 58 60 64 66 69 71 74 76 77 78 79 80 80 79 77 75 72 69 66 63 60 57 53 50 47
35 36 37 37 38 38 39 40 41 43 44 46 48 49 51 52 54 56 59 61 64 67 69 71 74 76 77 78 78 79 78 77 75 72 70 67 64 61 58 54 51 47 45 42
36 37 37 38 38 40 41 42 43 45 46 48 49 51 52 55 57 59 62 64 67 70 72 74 75 76 77 78 77 76 74 72 69 66 63 61 58 55 51 47 44 42 40 38
37 38 38 39 40 41 42 43 44 46 47 49 51 53 55 58 60 63 66 68 71 72 73 75 76 76 76 75 73 71 69 66 62 60 58 54 51 48 45 43 40 39 37 35
38 38 39 40 41 41 42 44 45 47 48 50 53 56 59 62 64 67 69 71 72 73 74 74 74 73 72 71 69 66 62 60 58 55 52 49 46 44 42 40 38 36 35 33
38 38 39 40 41 42 43 45 46 48 50 53 56 59 62 65 67 69 70 71 72 72 72 71 70 69 67 65 62 59 57 55 53 51 48 46 44 42 40 38 36 35 34 32
37 38 39 40 41 43 44 46 48 51 53 56 59 62 65 67 68 69 70 70 70 69 68 67 65 64 62 59 57 55 53 50 48 46 44 43 40 38 36 34 33 32 31 30
Wind_Direction
246 246 246 246 246 247 250 254 256 256 256 256 260 262 264 266 269 270 272 274 276 278 280 282 284 286 287 288 289 291 293 294 295 295 296 296 296 297 297 297 297 297 298 298
246 247 249 248 247 250 252 255 259 258 257 257 259 263 267 270 271 273 274 276 278 280 282 284 285 286 288 289 290 292 293 294 295 296 296 296 297 298 298 298 298 299 300 300
246 247 250 250 252 253 256 257 258 259 258 256 260 264 268 271 273 275 277 278 279 281 283 285 286 287 289 290 291 292 294 295 295 296 296 297 298 298 298 299 299 300 301 301
247 248 251 257 254 255 257 258 259 260 260 260 263 265 269 272 274 276 278 279 281 283 285 286 288 289 290 291 293 294 295 295 296 296 297 297 298 298 299 299 300 301 301 302
249 251 255 254 256 257 258 257 259 262 263 264 266 268 271 273 275 277 279 281 283 285 286 288 289 290 291 292 293 294 295 296 296 297 297 298 298 299 299 300 301 301 302 302
251 253 256 256 256 258 260 261 262 263 264 265 268 270 273 275 277 278 281 283 284 286 287 288 290 291 292 293 294 294 295 296 297 298 298 298 299 299 300 301 301 302 303 303
252 255 257 259 259 258 260 264 262 263 265 267 269 272 274 276 277 279 281 283 284 286 288 289 290 291 292 293 294 294 295 296 297 298 299 299 300 300 301 301 302 303 303 304
253 255 258 260 261 261 263 263 264 266 267 269 271 274 276 277 278 280 283 284 286 287 288 289 291 291 292 293 294 295 296 297 298 299 299 300 301 301 302 302 303 303 304 305
253 256 258 258 261 264 264 265 266 267 269 271 273 276 277 278 280 283 285 286 287 288 289 290 291 292 293 294 296 297 297 298 298 299 300 301 302 302 303 303 304 304 305 305
251 253 256 258 260 263 265 266 268 269 271 273 275 277 279 280 282 285 287 288 288 290 291 292 293 294 295 296 297 298 298 299 299 300 301 302 302 303 304 304 305 305 306 306
251 253 256 259 261 263 265 267 269 270 273 275 277 279 281 283 285 287 288 289 290 291 292 293 294 295 296 297 298 299 299 300 301 301 302 303 303 304 305 305 306 306 306 306
252 254 256 258 260 263 265 267 270 272 274 277 279 281 283 286 287 289 290 290 291 292 293 294 295 296 296 297 299 300 301 301 302 302 303 303 304 304 305 306 306 307 306 306
252 254 257 260 262 264 266 269 271 273 276 278 280 282 285 287 288 289 290 291 292 293 294 294 295 296 297 298 300 301 301 302 303 303 304 304 304 305 305 306 306 306 306 306
253 256 259 261 263 265 268 270 273 276 278 280 282 284 285 287 288 289 290 292 293 293 294 295 296 297 298 300 301 302 302 303 303 304 304 305 305 306 306 306 306 306 306 306
254 257 260 262 264 267 269 272 275 277 280 281 283 284 286 287 289 290 291 293 294 294 295 296 298 298 299 301 302 302 303 303 304 304 305 305 306 306 306 306 306 306 306 306
255 258 262 265 267 269 272 274 276 278 280 282 283 285 287 288 290 291 292 293 294 296 297 298 298 299 300 301 302 303 303 304 304 305 306 306 306 306 306 306 306 306 306 306
257 260 263 266 269 271 273 276 278 279 281 282 284 286 287 289 291 292 293 295 296 297 298 298 299 300 301 302 303 303 304 304 305 306 306 307 307 306 306 306 306 306 306 305
258 261 264 267 269 272 275 277 279 280 282 283 285 287 289 290 292 293 295 296 297 297 298 299 300 301 302 303 303 304 304 305 306 306 306 307 307 307 306 306 306 305 305 304
261 263 265 267 270 273 276 278 280 281 283 285 287 288 290 292 293 294 296 296 297 298 299 300 301 302 303 303 304 305 305 306 306 307 307 307 307 307 306 306 305 305 304 303
262 265 267 269 272 275 277 279 281 283 284 286 288 290 291 293 294 295 296 297 298 299 300 301 302 303 303 304 305 305 306 306 307 307 307 307 307 307 307 306 306 305 304 302
264 266 269 271 273 275 277 280 282 284 286 288 289 291 292 293 295 296 297 298 299 300 302 302 303 304 304 305 305 306 306 307 307 307 307 307 308 308 308 307 306 305 304 303
266 268 271 273 274 276 279 281 283 285 287 289 290 291 293 294 295 297 298 299 300 301 302 303 304 305 305 305 306 306 307 307 307 307 308 308 308 308 308 307 306 305 304 303
268 270 273 275 277 279 281 283 285 287 288 290 291 292 294 295 296 298 299 300 301 302 303 304 305 305 305 306 307 307 307 307 308 308 309 309 309 309 309 309 308 306 305 303
270 272 274 276 279 281 283 285 286 288 289 291 292 294 295 297 298 299 300 301 302 303 304 305 305 306 307 307 307 308 308 308 308 309 309 309 310 310 310 309 309 308 306 304
271 273 275 278 280 282 283 285 287 289 291 293 295 296 297 298 299 300 301 302 303 304 305 305 306 307 307 307 308 308 308 308 308 309 309 309 309 309 309 309 308 308 307 305
273 275 277 279 281 283 285 287 289 291 293 295 296 298 299 300 301 302 302 303 304 305 305 306 306 307 308 308 308 308 308 308 308 308 308 308 308 308 307 307 307 307 306 305
275 277 279 281 283 286 288 290 292 294 295 297 298 299 300 301 302 303 303 304 305 305 306 307 308 308 308 308 308 309 309 308 308 308 308 308 308 308 308 307 307 307 306 306
Height
5706 5708 5710 5712 5714 5715 5715 5717 5718 5721 5722 5724 5722 5722 5722 5722 5722 5722 5721 5720 5719 5718 5716 5713 5711 5708 5705 5702 5698 5694 5690 5686 5682 5677 5673 5668 5663 5658 5652 5647 5642 5636 5630 5624
5699 5700 5701 5703 5706 5707 5709 5710 5711 5712 5714 5716 5714 5713 5714 5714 5713 5713 5712 5711 5710 5708 5706 5703 5701 5698 5694 5691 5687 5683 5679 5675 5670 5665 5660 5655 5650 5645 5639 5633 5628 5622 5615 5609
5691 5693 5693 5695 5699 5700 5701 5703 5704 5704 5708 5707 5706 5706 5705 5705 5704 5704 5703 5701 5700 5698 5695 5693 5690 5687 5683 5679 5675 5671 5667 5663 5658 5653 5648 5642 5637 5631 5625 5619 5614 5607 5601 5594
5683 5685 5684 5692 5693 5693 5694 5695 5696 5696 5698 5698 5698 5697 5697 5696 5695 5694 5693 5691 5689 5687 5685 5682 5679 5675 5672 5668 5664 5659 5655 5650 5645 5640 5635 5629 5623 5617 5611 5605 5599 5593 5586 5579
5675 5676 5678 5683 5685 5685 5685 5687 5689 5688 5688 5689 5688 5688 5688 5687 5685 5684 5682 5681 5679 5676 5673 5670 5667 5664 5660 5656 5652 5647 5642 5638 5632 5627 5621 5615 5610 5604 5597 5591 5585 5577 5570 5563
5667 5667 5669 5677 5678 5677 5678 5679 5681 5679 5679 5679 5679 5679 5679 5677 5676 5674 5672 5670 5667 5665 5662 5659 5656 5652 5648 5644 5639 5635 5630 5625 5619 5613 5608 5602 5596 5589 5583 5576 5569 5562 5555 5546
5658 5659 5662 5668 5668 5669 5670 5673 5672 5670 5670 5670 5670 5670 5669 5667 5665 5663 5661 5659 5656 5654 5651 5647 5644 5640 5636 5631 5627 5622 5617 5612 5606 5600 5594 5588 5581 5575 5567 5561 5554 5547 5539 5531
5650 5651 5657 5660 5659 5660 5661 5661 5661 5661 5661 5661 5660 5659 5658 5657 5655 5653 5650 5648 5645 5642 5639 5636 5632 5628 5624 5619 5614 5609 5604 5598 5592 5586 5579 5573 5566 5559 5551 5544 5537 5529 5521 5513
5643 5647 5649 5649 5650 5650 5651 5651 5651 5651 5651 5651 5650 5649 5648 5646 5644 5642 5639 5637 5634 5630 5627 5623 5619 5615 5611 5606 5601 5596 5590 5584 5578 5572 5565 5557 5550 5543 5535 5527 5519 5511 5502 5494
5634 5637 5639 5639 5640 5640 5641 5641 5641 5641 5641 5641 5640 5638 5637 5635 5633 5630 5628 5625 5622 5618 5615 5611 5607 5602 5598 5592 5587 5582 5576 5570 5563 5557 5550 5542 5534 5526 5518 5509 5500 5491 5482 5473
5625 5628 5629 5630 5631 5631 5631 5631 5631 5631 5631 5630 5629 5627 5626 5624 5621 5619 5616 5613 5609 5606 5602 5598 5594 5589 5584 5578 5573 5568 5562 5555 5548 5541 5534 5526 5518 5509 5500 5491 5479 5470 5461 5451
5618 5620 5621 5622 5622 5622 5622 5621 5621 5621 5620 5619 5618 5616 5614 5612 5609 5607 5604 5600 5597 5593 5589 5585 5580 5575 5570 5564 5559 5553 5547 5540 5532 5525 5517 5509 5501 5493 5483 5472 5461 5449 5438 5428
5609 5610 5611 5612 5612 5612 5612 5611 5611 5610 5609 5608 5607 5605 5603 5600 5597 5594 5591 5588 5584 5580 5576 5571 5566 5561 5555 5549 5544 5537 5530 5523 5516 5508 5499 5491 5481 5472 5465 5457 5444 5431 5419 5408
5599 5600 5601 5602 5602 5602 5602 5601 5601 5600 5599 5597 5595 5593 5591 5588 5585 5582 5579 5575 5571 5567 5562 5557 5552 5546 5540 5534 5528 5521 5514 5506 5498 5490 5481 5471 5461 5451 5441 5433 5426 5417 5404 5390
5589 5590 5591 5592 5592 5592 5592 5591 5590 5589 5588 5586 5584 5582 5579 5576 5573 5570 5566 5562 5558 5554 5548 5543 5538 5532 5525 5519 5512 5505 5497 5489 5480 5471 5461 5451 5441 5431 5420 5410 5401 5393 5385 5374
5580 5580 5581 5582 5582 5582 5581 5581 5580 5578 5577 5575 5572 5570 5567 5564 5561 5557 5553 5549 5545 5540 5535 5529 5523 5517 5510 5503 5496 5488 5479 5470 5460 5451 5442 5432 5421 5410 5400 5389 5380 5371 5362 5353
5570 5571 5572 5572 5572 5571 5571 5570 5569 5567 5565 5563 5561 5558 5555 5552 5549 5545 5541 5536 5531 5526 5520 5514 5508 5501 5494 5486 5478 5470 5461 5452 5441 5431 5421 5410 5400 5389 5379 5368 5359 5350 5342 5333
5561 5561 5562 5562 5562 5561 5560 5559 5558 5556 5554 5552 5549 5546 5543 5540 5536 5532 5528 5523 5518 5512 5505 5498 5492 5485 5477 5468 5459 5451 5441 5432 5422 5411 5400 5390 5379 5368 5358 5348 5339 5330 5323 5316
5550 5551 5552 5551 5551 5550 5549 5548 5546 5544 5542 5540 5537 5534 5531 5527 5523 5519 5514 5509 5503 5497 5491 5483 5475 5467 5459 5449 5440 5431 5421 5411 5401 5390 5379 5368 5358 5348 5338 5328 5319 5311 5304 5297
5540 5541 5541 5541 5540 5539 5538 5536 5535 5533 5530 5528 5525 5522 5518 5514 5510 5505 5500 5494 5487 5481 5474 5467 5458 5450 5440 5431 5420 5411 5400 5390 5379 5369 5358 5348 5338 5329 5319 5310 5301 5293 5286 5280
5530 5530 5530 5530 5529 5528 5527 5525 5523 5521 5518 5515 5512 5509 5505 5500 5495 5490 5485 5479 5472 5464 5457 5449 5440 5431 5421 5411 5401 5390 5380 5369 5358 5348 5338 5328 5319 5310 5301 5293 5285 5277 5271 5266
5519 5519 5519 5519 5518 5517 5515 5513 5511 5508 5505 5502 5498 5495 5490 5486 5480 5475 5468 5462 5455 5447 5439 5430 5421 5411 5401 5391 5381 5370 5359 5349 5338 5328 5319 5310 5301 5293 5285 5277 5270 5263 5258 5253
5509 5508 5508 5507 5506 5504 5503 5500 5498 5495 5492 5488 5484 5480 5476 5471 5465 5459 5454 5446 5437 5429 5421 5411 5401 5391 5381 5371 5361 5350 5340 5330 5320 5311 5302 5293 5285 5277 5270 5263 5257 5251 5246 5241
5497 5497 5496 5495 5494 5492 5490 5488 5485 5482 5478 5474 5470 5465 5460 5455 5449 5442 5434 5427 5419 5410 5401 5392 5381 5371 5360 5351 5341 5331 5322 5312 5303 5295 5287 5279 5271 5264 5258 5252 5246 5240 5235 5231
5486 5485 5484 5483 5482 5480 5477 5475 5472 5468 5465 5460 5455 5450 5444 5437 5432 5425 5417 5408 5400 5390 5382 5372 5361 5351 5341 5332 5323 5314 5305 5296 5288 5280 5273 5266 5259 5253 5247 5241 5235 5230 5226 5221
5475 5474 5472 5471 5469 5467 5465 5462 5459 5455 5451 5446 5441 5434 5427 5420 5413 5405 5398 5389 5380 5371 5362 5352 5343 5333 5324 5315 5306 5298 5290 5282 5274 5266 5260 5253 5247 5241 5236 5231 5226 5221 5216 5212
5463 5462 5461 5459 5457 5454 5451 5448 5445 5440 5435 5430 5425 5418 5410 5403 5395 5387 5379 5370 5361 5352 5343 5334 5325 5317 5308 5300 5291 5283 5275 5268 5261 5254 5248 5242 5236 5231 5226 5221 5216 5212 5207 5203